Home   Weather   Unnao   Past weeks

Flag for India Past Weather in Unnao, Uttar Pradesh, India — Yesterday and Last 2 Weeks

Now
90 °F

Scattered clouds.


Feels Like: 108 °F
Forecast: 83 / 94 °F
Wind: 5 mph from East

Location: Lucknow / Amausi

Current Time: Aug 20, 2017 at 7:24:51 pm

Latest Report: Aug 20, 2017 at 6:30 pm


Visibility: 3 mi

Pressure: 29.56 "Hg

Humidity: 75%

Dew Point: 81 °F

Location of UnnaoLocation

Past Weather in Unnao — Graph

°F

Unnao Temperature Yesterday

Maximum temperature yesterday: 91 °F (at 12:00 pm)
Minimum temperature yesterday: 84 °F (at 12:00 am)
Average temperature yesterday: 87 °F

High & Low Weather Summary for the Past Weeks

 TemperatureHumidityPressure
High99 °F (Aug 17, 3:00 pm)100% (Aug 6, 3:00 am)29.74 "Hg (Aug 6, 3:00 am)
Low81 °F (Aug 7, 6:00 am)57% (Aug 17, 3:00 pm)29.45 "Hg (Aug 11, 4:30 pm)
Average87 °F88%29.57 "Hg
* Reported Aug 5 5:30 pm — Aug 20 6:00 pm, Unnao. Weather by CustomWeather, © 2017

Note: Actual official high and low records may vary slightly from our data, if they occured in-between our weather recording intervals... More about our weather records

Advertising

Unnao Weather History for the Previous 24 Hours

Scroll right to see more
 ConditionsComfort  
Time TempWeatherWind HumidityBarometerVisibility
6:00 pm
Sun, Aug 20
91 °FScattered clouds.3 mph71%29.56 "Hg3 mi
5:30 pm93 °FScattered clouds.5 mph71%29.56 "Hg3 mi
5:00 pm93 °FScattered clouds.3 mph67%29.56 "Hg3 mi
4:30 pm93 °FScattered clouds.5 mph67%29.53 "Hg3 mi
4:00 pm95 °FScattered clouds.3 mph63%29.56 "Hg3 mi
3:30 pm95 °FScattered clouds.3 mph63%29.56 "Hg3 mi
3:00 pm95 °FScattered clouds.3 mph63%29.56 "Hg3 mi
2:30 pm95 °FScattered clouds.3 mph67%29.59 "Hg3 mi
2:00 pm93 °FScattered clouds.6 mph67%29.59 "Hg3 mi
1:30 pm95 °FScattered clouds.7 mph67%29.62 "Hg3 mi
1:00 pm93 °FBroken clouds.6 mph71%29.62 "Hg3 mi
12:30 pm93 °FBroken clouds.6 mph71%29.62 "Hg3 mi
12:00 pm93 °FBroken clouds.7 mph67%29.65 "Hg3 mi
11:30 am93 °FBroken clouds.5 mph71%29.65 "Hg3 mi
11:00 am91 °FBroken clouds.8 mph75%29.65 "Hg3 mi
10:30 am91 °FBroken clouds.8 mph71%29.68 "Hg3 mi
10:00 am91 °FScattered clouds.7 mph71%29.68 "Hg2 mi
9:30 am90 °FScattered clouds.8 mph75%29.68 "Hg2 mi
9:00 am90 °FScattered clouds.8 mph75%29.68 "Hg2 mi
8:30 am88 °FFog.5 mph84%29.65 "Hg2 mi
7:30 am86 °FFog.5 mph89%29.65 "Hg2 mi
6:30 am84 °FFog.5 mph94%29.65 "Hg2 mi
5:30 am84 °FFog.5 mph94%29.62 "Hg2 mi
5:00 am84 °FFog.2 mph89%29.62 "Hg2 mi
4:00 am84 °FFog.3 mph94%29.62 "Hg2 mi
3:00 am84 °FFog.5 mph89%29.62 "Hg2 mi
2:00 am84 °FFog.5 mph89%29.65 "Hg2 mi
1:00 am84 °FFog.5 mph89%29.65 "Hg2 mi
12:00 am84 °FFog.5 mph89%29.65 "Hg2 mi
11:00 pm
Sat, Aug 19
84 °FFog.5 mph89%29.68 "Hg2 mi
10:00 pm84 °FFog.5 mph89%29.68 "Hg2 mi
9:00 pm86 °FFog.5 mph84%29.65 "Hg2 mi
8:30 pm86 °FFog.3 mph84%29.65 "Hg2 mi
8:00 pm86 °FFog.5 mph84%29.65 "Hg2 mi
Weather by CustomWeather, © 2017

See weather overviewHow to use our weather pages